Regional Weather Roundup
Issued by NWS Bismarck, ND

Home | Current Version | Previous Version | Text Only | Print | Product List | Glossary On
Versions: 1 2 3 4 5 6 7 8 9 10 11 12 13 14 15 16 17 18 19 20 21 22 23 24 25 26 27 28 29 30 31 32 33 34 35 36 37 38 39 40 41 42 43 44 45 46 47 48 49 50
000
ASUS43 KBIS 221259
RWRBIS

NWR BROADCAST TEXT
NATIONAL WEATHER SERVICE BISMARCK ND
800 AM CDT FRI AUG 22 2014

NOTE: "FAIR" INDICATES FEW OR NO CLOUDS BELOW 12,000 FEET WITH NO
SIGNIFICANT WEATHER AND/OR OBSTRUCTIONS TO VISIBILITY.


CITY           SKY/WX    TMP DP  RH WIND       PRES   REMARKS
WILLISTON      CLOUDY    60  55  83 N9        30.09S
MINOT          CLOUDY    60  58  92 N9        30.06R FOG
MINOT AFB      NOT AVBL
BISMARCK       LGT RAIN  65  65 100 CALM      30.01S
DICKINSON      NOT AVBL
GARRISON         N/A     63  61  93 NE9       30.04R
HETTINGER ARPT CLOUDY    61  59  93 CALM      30.07R
JAMESTOWN      NOT AVBL
BEACH            N/A     57  57 100 N5        30.08S FOG
CARRINGTON     CLOUDY    64  64 100 NE9       30.03S FOG
CROSBY         CLOUDY    55  55 100 N5        30.13S
HARVEY         CLOUDY    63  63 100 NE8       30.03S
HAZEN          CLOUDY    64  63  94 NE5       30.04S
LINTON         LGT RAIN  64  64 100 CALM      30.03S
MANDAN         CLOUDY    64  64 100 CALM      30.04R FOG
RUGBY          FAIR      61  61 100 NE6       30.05S
STANLEY        CLOUDY    57  57 100 N8        30.10S
TIOGA          CLOUDY    57  57 100 NE9       30.13S
WATFORD CITY   CLOUDY    59  59 100 NE7       30.06S
$$

CITY           SKY/WX    TMP DP  RH WIND       PRES   REMARKS
GRAND FORKS    CLOUDY    68  66  93 N9        29.96S
GRAND FORKS AF NOT AVBL
DEVILS LAKE    CLOUDY    63  57  82 N10       30.02R
FARGO          FOG       68  67  96 NW7       29.96R VSB 1/4
CAVALIER       LGT RAIN  63  63 100 N10       30.01R
GRAFTON        CLOUDY    64  64 100 N15       29.98S FOG
GWINNER        CLOUDY    66  66 100 N10       29.97F VSB 1/4
LANGDON        CLOUDY    63  59  88 N10G17    30.03S
ROLLA          CLOUDY    59  59 100 N9        30.08S FOG
WALHALLA         N/A     63  63 100 N8        30.02S
$$

CITY           SKY/WX    TMP DP  RH WIND       PRES   REMARKS
ABERDEEN       PTSUNNY   65  65 100 N8        29.98S
MOBRIDGE       LGT RAIN  64  63  96 N8        30.01S
RAPID CITY     CLOUDY    62  61  96 NW8       30.08R
GLASGOW        LGT RAIN  59  58  96 NE12      30.09S FOG
SIDNEY         CLOUDY    61  59  94 NE10      30.09S
WOLF POINT     LGT RAIN  61  57  87 E8        30.10R
GLENDIVE       CLOUDY    61  61 100 NE5       30.08S
MILES CITY     CLOUDY    61  56  83 NW3       30.07S
BAKER          CLOUDY    61  59  93 SW3       30.09R
$$

CITY           SKY/WX    TMP DP  RH WIND       PRES   REMARKS
BILLINGS       LGT RAIN  56  54  93 N3        30.10S
GREAT FALLS    LGT RAIN  51  51 100 N9        30.13R VSB 1
$$




USA.gov is the U.S. government's official web portal to all federal, state and local government web resources and services.